Location: Home
(42.5358°N, 72.7383°W)
Time: 08:22:40
(UTC-05:00)

Envisat - Pass Details

Date: 01 November 2021
Orbit: 764 x 766 km, 98.2° (Epoch: 07 December)

Event Time Altitude Azimuth Distance (km) Brightness Sun altitude
Rises 18:16:47 0° 207° (SSW) 3,219 6.9 -6.7°
Reaches altitude 10° 18:19:47 10° 226° (SW) 2,299 6.5 -7.2°
Maximum altitude 18:23:12 18° 269° (W) 1,811 6.2 -7.9°
Drops below altitude 10° 18:26:38 10° 312° (NW) 2,310 6.0 -8.5°
Sets 18:29:41 0° 331° (NNW) 3,241 6.5 -9.0°
